Flag for USA

Past Weather in Woodbridge Street Historic District, Massachusetts, USA — Yesterday and Last 2 Weeks

Now
30 °F

Clear.


Feels Like: 24 °F
Forecast: 41 / 25 °F
Wind: 6 mph from North

Location: Chicopee Falls / Westover Air Force Base

Current Time: Mar 26, 2019 at 12:35:24 am

Latest Report: Mar 25, 2019 at 11:56 pm


Visibility: 10 mi

Pressure: 30.11 "Hg

Humidity: 39%

Dew Point: 8 °F

Location of Woodbridge Street Historic DistrictLocation

Past Weather in Woodbridge Street Historic District — Graph

°F

Woodbridge Street Historic District Temperature Yesterday

Maximum temperature yesterday: 50 °F (at 2:56 pm)
Minimum temperature yesterday: 34 °F (at 10:56 pm)
Average temperature yesterday: 43 °F

High & Low Weather Summary for the Past Weeks

 TemperatureHumidityPressure
High67 °F (Mar 15, 3:56 pm)100% (Mar 11, 12:11 am)30.42 "Hg (Mar 11, 12:11 am)
Low19 °F (Mar 13, 6:56 am)11% (Mar 25, 2:56 pm)29.20 "Hg (Mar 22, 3:56 pm)
Average38 °F58%30.03 "Hg
* Reported Mar 10 10:56 pm — Mar 25 10:56 pm, Woodbridge Street Historic District. Weather by CustomWeather, © 2019

Note: Actual official high and low records may vary slightly from our data, if they occured in-between our weather recording intervals... More about our weather records

Advertising

Woodbridge Street Historic District Weather History for the Previous 24 Hours

Scroll right to see more
 ConditionsComfort  
Time TempWeatherWind HumidityBarometerVisibility
10:56 pm
Mon, Mar 25
34 °FClear.6 mph28%30.11 "Hg10 mi
9:56 pm35 °FPassing clouds.8 mph29%30.10 "Hg10 mi
8:56 pm37 °FPassing clouds.8 mph27%30.09 "Hg10 mi
7:56 pm40 °FPassing clouds.8 mph23%30.06 "Hg10 mi
6:56 pm42 °FScattered clouds.6 mph22%30.04 "Hg10 mi
5:56 pm46 °FPassing clouds.9 mph14%30.04 "Hg10 mi
4:56 pm46 °FScattered clouds.8 mph16%30.03 "Hg10 mi
3:56 pm48 °FScattered clouds.12 mph14%30.03 "Hg10 mi
2:56 pm50 °FPassing clouds.12 mph11%30.05 "Hg10 mi
1:56 pm48 °FPassing clouds.9 mph13%30.07 "Hg10 mi
12:56 pm47 °FScattered clouds.9 mph14%30.08 "Hg10 mi
11:56 am44 °FPartly sunny.8 mph31%30.09 "Hg10 mi
9:56 am40 °FScattered clouds.10 mph45%30.09 "Hg10 mi
6:56 am41 °FCloudy.12 mph55%30.02 "Hg10 mi
5:56 am42 °FClear.13 mph50%30.00 "Hg10 mi
4:56 am43 °FPassing clouds.8 mph45%29.99 "Hg10 mi
3:56 am43 °FPassing clouds.3 mph38%29.99 "Hg10 mi
2:56 am44 °FOvercast.5 mph33%29.99 "Hg10 mi
Weather by CustomWeather, © 2019

See weather overview